Time,TemperatureF,DewpointF,PressureIn,WindDirection,WindDirectionDegrees,WindSpeedMPH,WindSpeedGustMPH,Humidity,HourlyPrecipIn,Conditions,Clouds,dailyrainin,SoftwareType,DateUTC
2013-05-27 00:02:00,44.1,41.6,30.08,NW,315,0.0,-999.0,91,-99.99,,,0.00,Acu-Link.com,2013-05-27 04:02:00,
2013-05-27 00:17:00,44.1,41.9,30.08,NNW,337,0.0,-999.0,92,-99.99,,,0.00,Acu-Link.com,2013-05-27 04:17:00,
2013-05-27 00:32:00,43.3,41.1,30.09,West,270,0.0,-999.0,92,-99.99,,,0.00,Acu-Link.com,2013-05-27 04:32:00,
2013-05-27 00:48:00,43.2,41.3,30.08,SSW,202,0.0,-999.0,93,-99.99,,,0.00,Acu-Link.com,2013-05-27 04:48:00,
2013-05-27 01:03:00,42.8,40.9,30.09,WNW,292,0.0,-999.0,93,-99.99,,,0.00,Acu-Link.com,2013-05-27 05:03:00,
2013-05-27 01:18:00,42.8,41.2,30.08,NW,315,0.0,-999.0,94,-99.99,,,0.00,Acu-Link.com,2013-05-27 05:18:00,
2013-05-27 01:33:00,43.0,41.4,30.09,West,270,0.0,-999.0,94,-99.99,,,0.00,Acu-Link.com,2013-05-27 05:33:00,
2013-05-27 01:48:00,43.0,41.4,30.08,WNW,292,0.0,-999.0,94,-99.99,,,0.00,Acu-Link.com,2013-05-27 05:48:00,
2013-05-27 02:04:00,42.6,41.3,30.09,SW,225,0.0,-999.0,95,-99.99,,,0.00,Acu-Link.com,2013-05-27 06:04:00,
2013-05-27 02:19:00,42.8,41.5,30.09,WNW,292,0.0,-999.0,95,-99.99,,,0.00,Acu-Link.com,2013-05-27 06:19:00,
2013-05-27 02:35:00,42.8,41.5,30.09,WNW,292,0.0,-999.0,95,-99.99,,,0.00,Acu-Link.com,2013-05-27 06:35:00,
2013-05-27 02:50:00,42.8,41.7,30.09,NE,45,0.0,-999.0,96,-99.99,,,0.00,Acu-Link.com,2013-05-27 06:50:00,
2013-05-27 03:05:00,42.8,41.7,30.10,NE,45,0.0,-999.0,96,-99.99,,,0.00,Acu-Link.com,2013-05-27 07:05:00,
2013-05-27 03:20:00,42.4,41.3,30.10,West,270,0.0,-999.0,96,-99.99,,,0.00,Acu-Link.com,2013-05-27 07:20:00,
2013-05-27 03:36:00,42.1,41.0,30.10,NNW,337,0.0,-999.0,96,-99.99,,,0.00,Acu-Link.com,2013-05-27 07:36:00,
2013-05-27 03:51:00,41.7,40.4,30.09,NW,315,0.0,-999.0,95,-99.99,,,0.00,Acu-Link.com,2013-05-27 07:51:00,
2013-05-27 04:07:00,41.7,40.4,30.09,NW,315,0.0,-999.0,95,-99.99,,,0.00,Acu-Link.com,2013-05-27 08:07:00,
2013-05-27 04:22:00,41.5,40.2,30.10,NW,315,0.0,-999.0,95,-99.99,,,0.00,Acu-Link.com,2013-05-27 08:22:00,
2013-05-27 04:37:00,41.4,40.1,30.09,WSW,247,0.0,-999.0,95,-99.99,,,0.00,Acu-Link.com,2013-05-27 08:37:00,
2013-05-27 04:52:00,41.2,40.1,30.09,WSW,247,0.0,-999.0,96,-99.99,,,0.00,Acu-Link.com,2013-05-27 08:52:00,
2013-05-27 05:08:00,41.0,39.9,30.10,West,270,0.0,-999.0,96,-99.99,,,0.00,Acu-Link.com,2013-05-27 09:08:00,
2013-05-27 05:23:00,40.8,39.7,30.10,West,270,0.0,-999.0,96,-99.99,,,0.00,Acu-Link.com,2013-05-27 09:23:00,
2013-05-27 05:38:00,40.5,39.5,30.10,WSW,247,0.0,-999.0,96,-99.99,,,0.00,Acu-Link.com,2013-05-27 09:38:00,
2013-05-27 05:53:00,40.5,39.5,30.11,WSW,247,0.0,-999.0,96,-99.99,,,0.00,Acu-Link.com,2013-05-27 09:53:00,
2013-05-27 06:08:00,40.6,39.6,30.12,WSW,247,0.0,-999.0,96,-99.99,,,0.00,Acu-Link.com,2013-05-27 10:08:00,
2013-05-27 06:24:00,41.4,40.3,30.12,WSW,247,0.0,-999.0,96,-99.99,,,0.00,Acu-Link.com,2013-05-27 10:24:00,
2013-05-27 06:39:00,42.4,41.6,30.12,WSW,247,0.0,-999.0,97,-99.99,,,0.00,Acu-Link.com,2013-05-27 10:39:00,
2013-05-27 06:54:00,45.1,44.3,30.13,SSE,157,0.0,-999.0,97,-99.99,,,0.00,Acu-Link.com,2013-05-27 10:54:00,
2013-05-27 07:10:00,48.0,45.2,30.13,SSE,157,0.0,-999.0,90,-99.99,,,0.00,Acu-Link.com,2013-05-27 11:10:00,
2013-05-27 07:25:00,50.2,43.6,30.13,SE,135,2.2,-999.0,78,-99.99,,,0.00,Acu-Link.com,2013-05-27 11:25:00,
2013-05-27 07:40:00,52.7,43.9,30.12,SSW,202,0.0,-999.0,72,-99.99,,,0.00,Acu-Link.com,2013-05-27 11:40:00,
2013-05-27 07:55:00,55.8,45.0,30.14,South,180,0.0,-999.0,67,-99.99,,,0.00,Acu-Link.com,2013-05-27 11:55:00,
2013-05-27 08:11:00,57.0,44.5,30.13,NE,45,2.2,-999.0,63,-99.99,,,0.00,Acu-Link.com,2013-05-27 12:11:00,
2013-05-27 08:26:00,59.0,45.1,30.14,West,270,2.7,-999.0,60,-99.99,,,0.00,Acu-Link.com,2013-05-27 12:26:00,
2013-05-27 08:42:00,60.3,44.1,30.15,South,180,3.2,-999.0,55,-99.99,,,0.00,Acu-Link.com,2013-05-27 12:42:00,
2013-05-27 08:57:00,62.4,45.5,30.13,West,270,2.7,-999.0,54,-99.99,,,0.00,Acu-Link.com,2013-05-27 12:57:00,
2013-05-27 09:12:00,62.6,45.7,30.13,West,270,0.0,-999.0,54,-99.99,,,0.00,Acu-Link.com,2013-05-27 13:12:00,
2013-05-27 09:27:00,63.7,44.7,30.13,WSW,247,3.7,-999.0,50,-99.99,,,0.00,Acu-Link.com,2013-05-27 13:27:00,
2013-05-27 09:43:00,65.5,46.4,30.13,NNE,22,2.2,-999.0,50,-99.99,,,0.00,Acu-Link.com,2013-05-27 13:43:00,
2013-05-27 09:58:00,66.6,44.6,30.12,North,0,3.7,-999.0,45,-99.99,,,0.00,Acu-Link.com,2013-05-27 13:58:00,
2013-05-27 10:13:00,66.6,45.2,30.12,SSW,202,2.7,-999.0,46,-99.99,,,0.00,Acu-Link.com,2013-05-27 14:13:00,
2013-05-27 10:28:00,65.7,50.0,30.11,WSW,247,2.2,-999.0,57,-99.99,,,0.00,Acu-Link.com,2013-05-27 14:28:00,
2013-05-27 10:44:00,64.8,51.5,30.11,SW,225,2.7,-999.0,62,-99.99,,,0.00,Acu-Link.com,2013-05-27 14:44:00,
2013-05-27 10:59:00,65.1,51.3,30.11,NNW,337,6.3,-999.0,61,-99.99,,,0.00,Acu-Link.com,2013-05-27 14:59:00,
2013-05-27 11:14:00,66.0,51.3,30.12,SSE,157,5.8,-999.0,59,-99.99,,,0.00,Acu-Link.com,2013-05-27 15:14:00,
2013-05-27 11:30:00,65.8,50.1,30.11,SSW,202,2.7,-999.0,57,-99.99,,,0.00,Acu-Link.com,2013-05-27 15:30:00,
2013-05-27 11:50:00,67.8,49.0,30.11,South,180,4.7,-999.0,51,-99.99,,,0.00,Acu-Link.com,2013-05-27 15:50:00,
2013-05-27 12:05:00,67.8,50.0,30.10,SSE,157,2.7,-999.0,53,-99.99,,,0.00,Acu-Link.com,2013-05-27 16:05:00,
2013-05-27 12:20:00,69.4,49.9,30.09,WSW,247,3.7,-999.0,50,-99.99,,,0.00,Acu-Link.com,2013-05-27 16:20:00,
2013-05-27 12:36:00,69.6,46.7,30.09,SSE,157,2.7,-999.0,44,-99.99,,,0.00,Acu-Link.com,2013-05-27 16:36:00,
2013-05-27 12:51:00,69.3,44.6,30.09,West,270,5.8,-999.0,41,-99.99,,,0.00,Acu-Link.com,2013-05-27 16:51:00,
2013-05-27 13:06:00,70.5,43.7,30.08,SSW,202,6.8,-999.0,38,-99.99,,,0.00,Acu-Link.com,2013-05-27 17:06:00,
2013-05-27 13:22:00,70.3,44.2,30.07,South,180,2.7,-999.0,39,-99.99,,,0.00,Acu-Link.com,2013-05-27 17:22:00,
2013-05-27 13:37:00,70.3,45.5,30.06,South,180,3.2,-999.0,41,-99.99,,,0.00,Acu-Link.com,2013-05-27 17:37:00,
2013-05-27 13:52:00,70.9,42.6,30.06,South,180,3.2,-999.0,36,-99.99,,,0.00,Acu-Link.com,2013-05-27 17:52:00,
2013-05-27 14:07:00,71.6,43.2,30.07,SW,225,6.3,-999.0,36,-99.99,,,0.00,Acu-Link.com,2013-05-27 18:07:00,
2013-05-27 14:23:00,71.6,43.2,30.05,SW,225,5.3,-999.0,36,-99.99,,,0.00,Acu-Link.com,2013-05-27 18:23:00,
2013-05-27 14:38:00,71.2,44.3,30.05,SSE,157,2.2,-999.0,38,-99.99,,,0.00,Acu-Link.com,2013-05-27 18:38:00,
2013-05-27 14:53:00,71.6,41.7,30.04,WNW,292,3.7,-999.0,34,-99.99,,,0.00,Acu-Link.com,2013-05-27 18:53:00,
2013-05-27 15:08:00,70.9,41.1,30.05,SSW,202,4.2,-999.0,34,-99.99,,,0.00,Acu-Link.com,2013-05-27 19:08:00,
2013-05-27 15:23:00,71.2,41.4,30.04,SE,135,2.2,-999.0,34,-99.99,,,0.00,Acu-Link.com,2013-05-27 19:23:00,
2013-05-27 15:38:00,71.2,42.1,30.04,ESE,112,2.2,-999.0,35,-99.99,,,0.00,Acu-Link.com,2013-05-27 19:38:00,
2013-05-27 16:09:00,71.8,43.4,30.04,West,270,9.4,-999.0,36,-99.99,,,0.00,Acu-Link.com,2013-05-27 20:09:00,
2013-05-27 16:24:00,71.8,41.9,30.03,NW,315,2.7,-999.0,34,-99.99,,,0.00,Acu-Link.com,2013-05-27 20:24:00,
2013-05-27 16:39:00,72.3,40.8,30.04,WSW,247,9.9,-999.0,32,-99.99,,,0.00,Acu-Link.com,2013-05-27 20:39:00,
2013-05-27 16:55:00,71.8,40.3,30.03,SSW,202,3.2,-999.0,32,-99.99,,,0.00,Acu-Link.com,2013-05-27 20:55:00,
2013-05-27 17:10:00,71.2,39.8,30.03,South,180,7.8,-999.0,32,-99.99,,,0.00,Acu-Link.com,2013-05-27 21:10:00,
2013-05-27 17:25:00,70.9,43.3,30.03,NW,315,2.7,-999.0,37,-99.99,,,0.00,Acu-Link.com,2013-05-27 21:25:00,
2013-05-27 17:40:00,73.2,45.4,30.03,SW,225,6.3,-999.0,37,-99.99,,,0.00,Acu-Link.com,2013-05-27 21:40:00,
2013-05-27 17:55:00,70.5,48.1,30.04,SSW,202,3.7,-999.0,45,-99.99,,,0.00,Acu-Link.com,2013-05-27 21:55:00,
2013-05-27 18:10:00,71.8,49.3,30.04,ENE,67,2.2,-999.0,45,-99.99,,,0.00,Acu-Link.com,2013-05-27 22:10:00,
2013-05-27 18:26:00,69.3,47.6,30.05,SSW,202,4.2,-999.0,46,-99.99,,,0.00,Acu-Link.com,2013-05-27 22:26:00,
2013-05-27 18:41:00,71.6,47.3,30.05,North,0,5.3,-999.0,42,-99.99,,,0.00,Acu-Link.com,2013-05-27 22:41:00,
2013-05-27 18:56:00,70.5,46.3,30.05,West,270,3.7,-999.0,42,-99.99,,,0.00,Acu-Link.com,2013-05-27 22:56:00,
2013-05-27 19:12:00,67.1,46.2,30.05,ENE,67,0.0,-999.0,47,-99.99,,,0.00,Acu-Link.com,2013-05-27 23:12:00,
2013-05-27 19:27:00,64.6,46.1,30.05,East,90,1.7,-999.0,51,-99.99,,,0.00,Acu-Link.com,2013-05-27 23:27:00,
2013-05-27 19:42:00,63.0,46.1,30.06,SW,225,2.7,-999.0,54,-99.99,,,0.00,Acu-Link.com,2013-05-27 23:42:00,
2013-05-27 19:57:00,61.9,46.0,30.06,NW,315,2.2,-999.0,56,-99.99,,,0.00,Acu-Link.com,2013-05-27 23:57:00,
2013-05-27 20:13:00,61.2,44.9,30.06,West,270,2.2,-999.0,55,-99.99,,,0.00,Acu-Link.com,2013-05-28 00:13:00,
2013-05-27 20:28:00,60.4,44.6,30.06,SSW,202,0.0,-999.0,56,-99.99,,,0.00,Acu-Link.com,2013-05-28 00:28:00,
2013-05-27 20:43:00,59.5,45.6,30.06,North,0,0.0,-999.0,60,-99.99,,,0.00,Acu-Link.com,2013-05-28 00:43:00,
2013-05-27 20:59:00,58.5,45.9,30.06,NW,315,0.0,-999.0,63,-99.99,,,0.00,Acu-Link.com,2013-05-28 00:59:00,
2013-05-27 21:14:00,57.7,46.0,30.07,NNW,337,1.1,-999.0,65,-99.99,,,0.00,Acu-Link.com,2013-05-28 01:14:00,
2013-05-27 21:30:00,57.2,45.9,30.08,NNE,22,0.0,-999.0,66,-99.99,,,0.00,Acu-Link.com,2013-05-28 01:30:00,
2013-05-27 21:45:00,56.5,46.1,30.08,ENE,67,0.0,-999.0,68,-99.99,,,0.00,Acu-Link.com,2013-05-28 01:45:00,
2013-05-27 22:00:00,55.6,46.3,30.08,NNE,22,0.0,-999.0,71,-99.99,,,0.00,Acu-Link.com,2013-05-28 02:00:00,
2013-05-27 22:16:00,54.5,46.4,30.08,South,180,0.0,-999.0,74,-99.99,,,0.00,Acu-Link.com,2013-05-28 02:16:00,
2013-05-27 22:31:00,53.2,46.2,30.08,NW,315,0.0,-999.0,77,-99.99,,,0.00,Acu-Link.com,2013-05-28 02:31:00,
2013-05-27 22:46:00,52.9,46.6,30.09,NNW,337,0.0,-999.0,79,-99.99,,,0.00,Acu-Link.com,2013-05-28 02:46:00,
2013-05-27 23:01:00,52.0,46.4,30.09,NNE,22,0.0,-999.0,81,-99.99,,,0.00,Acu-Link.com,2013-05-28 03:01:00,
2013-05-27 23:17:00,51.4,46.4,30.10,NNE,22,0.0,-999.0,83,-99.99,,,0.00,Acu-Link.com,2013-05-28 03:17:00,
2013-05-27 23:32:00,50.5,45.8,30.10,ENE,67,0.0,-999.0,84,-99.99,,,0.00,Acu-Link.com,2013-05-28 03:32:00,
2013-05-27 23:48:00,50.2,46.2,30.11,NNE,22,0.0,-999.0,86,-99.99,,,0.00,Acu-Link.com,2013-05-28 03:48:00,